Tracking 27122 objects as of 25-Mar-2023
HD Live streaming from Space Station
objects crossing your sky now

STARLINK-4398

Track STARLINK-4398 now!
10-day predictions
STARLINK-4398 is classified as:


NORAD ID: 53466
Int'l Code: 2022-099B
Perigee: 569.8 km
Apogee: 570.6 km
Inclination: 97.7 °
Period: 95.9 minutes
Semi major axis: 6941 km
RCS: Unknown
Launch date: August 12, 2022
Source: United States (US)
Launch site: AIR FORCE WESTERN TEST RANGE (AFWTR)
Your satellite tracking list
Your tracking list is empty




NASA's NSSDC Master Catalog

Two Line Element Set (TLE):
1 53466U 22099B   23083.89095580 -.00014623  00000-0 -11369-2 0  9996
2 53466  97.6573 206.1793 0000573 195.5366 164.5841 15.01239623 33828
Source of the keplerian elements: AFSPC